Regional Weather Roundup
Issued by NWS

Home | Current Version | Previous Version | Text Only | Print | Product List | Glossary Off
Versions: 1 2 3 4 5 6 7 8 9 10 11 12 13 14 15 16 17 18 19 20 21 22 23 24 25 26 27 28 29 30 31 32 33 34 35 36 37 38 39 40 41 42 43 44 45 46 47 48 49 50

000
ASUS43 KBIS 300402
RWRND

NORTH DAKOTA REGIONAL WEATHER ROUNDUP
NATIONAL WEATHER SERVICE BISMARCK ND
1100 PM CDT SAT AUG 29 2015

NOTE: "FAIR" INDICATES FEW OR NO CLOUDS BELOW 12,000 FEET WITH NO
SIGNIFICANT WEATHER AND/OR OBSTRUCTIONS TO VISIBILITY.


NDZ001>003-009>011-017-300500-
NORTHWEST NORTH DAKOTA

CITY           SKY/WX    TMP DP  RH WIND       PRES   REMARKS
WILLISTON      MOCLDY    71  53  52 N5        29.75F HAZE
MINOT          CLOUDY    70  58  65 CALM      29.75F HAZE
MINOT AFB      MOCLDY    71  60  68 NE5       29.75F
$$

NDZ018>021-031>035-040>046-300500-
SOUTHWEST NORTH DAKOTA

CITY           SKY/WX    TMP DP  RH WIND       PRES   REMARKS
BISMARCK       PTCLDY    71  61  70 SE6       29.82F
DICKINSON      CLOUDY    71  51  49 S7        29.81F
GARRISON         N/A     77  63  61 S8        29.78F
HETTINGER ARPT MOCLDY    74  54  49 SE9       29.87F
$$

NDZ004>008-012>016-024-026-027-054-300500-
NORTHEAST NORTH DAKOTA

CITY           SKY/WX    TMP DP  RH WIND       PRES   REMARKS
GRAND FORKS    PTCLDY    71  68  90 S13       29.80F
GRND FRKS AFB  CLEAR     72  69  90 S10       29.81S
DEVILS LAKE    PTCLDY    75  66  73 S10       29.79F
$$

NDZ022-023-025-028>030-036>039-047>053-300500-
SOUTHEAST NORTH DAKOTA

CITY           SKY/WX    TMP DP  RH WIND       PRES   REMARKS
FARGO          PTCLDY    71  65  81 S14       29.86F
JAMESTOWN      CLEAR     72  69  90 S12       29.85F
$$



USA.gov is the U.S. government's official web portal to all federal, state and local government web resources and services.